Hourly Data Report for July 30, 2021

LONDON CS
ONTARIO
Current Station Operator: ECCC - MSC

43°02'00.000" N
81°09'00.000" W
278.00 m
6144478
71622
WSN

Download Data

Hourly Data (July 2021)
Hourly Data Report for July 30, 2021
TIME
LST
Temp Definition
°C
Dew Point Definition
°C
Rel Hum Definition
%
Precip. Amount Definition
mm

Wind Dir Definition
10's deg

Wind Spd Definition
km/h
Visibility Definition
km
Stn Press Definition
kPa
Hmdx Definition


Wind Chill Definition


Weather Definition


00:00 18.2 16.5 90 0.0       97.98     LegendNANA
01:00 17.8 16.8 94 0.0       97.97     LegendNANA
02:00 17.8 16.7 93 0.0       98.01     LegendNANA
03:00 17.3 15.5 89 0.0       98.10     LegendNANA
04:00 16.1 14.1 88 0.0       98.17     LegendNANA
05:00 15.4 13.7 89 0.0       98.22     LegendNANA
06:00 15.3 13.2 87 0.0       98.28     LegendNANA
07:00 16.2 12.9 81 0.0       98.32     LegendNANA
08:00 17.0 13.1 78 0.0       98.39     LegendNANA
09:00 17.9 10.5 62 0.0       98.45     LegendNANA
10:00 19.0 11.5 62 0.0       98.51     LegendNANA
11:00 19.1 10.8 59 0.0       98.56     LegendNANA
12:00 20.3 11.2 56 0.0       98.57     LegendNANA
13:00 21.1 10.5 51 0.0       98.56     LegendNANA
14:00 20.6 9.9 50 0.0       98.54     LegendNANA
15:00 20.9 9.6 48 0.0       98.53     LegendNANA
16:00 19.9 10.1 53 0.0       98.54     LegendNANA
17:00 19.2 9.0 52 0.0       98.55     LegendNANA
18:00 18.2 8.6 53 0.0       98.55     LegendNANA
19:00 16.8 8.2 57 0.0       98.57     LegendNANA
20:00 15.6 8.6 63 0.0       98.59     LegendNANA
21:00 13.7 8.7 72 0.0       98.60     LegendNANA
22:00 12.7 9.3 80 0.0       98.61     LegendNANA
23:00 11.7 9.3 85 0.0       98.60     LegendNANA

Notes on Data Quality.

Legend

  • E = Estimated
  • M = Missing
  • NA = Not Available*
  • [empty] = Indicates an unobserved value
Date modified: